ONEWEB-0346 (49212 NORAD) Tracking and Keplerian Element Data

This shows tracking and keplerian element data for the satellite.

Feedback or suggestion? Click here.




ElementValue
Catalog49212
NameONEWEB-0346
Epoch Orbit365
Epoch Day287.91667824
Epoch Year2021
RAAN317.954
Inclination87.5
Eccentricity0.0018648
Argument of Perigee194.6448
Mean Anonmoly232.1462
Mean Motion14.9037618
Decay Rate-0.0134765
L11 49212U 21083AC 21287.91667824 -.01347650 00000-0 -15034+0 0 9995
L22 49212 87.5000 317.9540 0018648 194.6448 232.1462 14.90376180 3655

Live tracking and technical data element details for ONEWEB-0346 (NORAD 49212). ONEWEB-0346 can be tracked NOW for your location showing map with azimuth and elevation plus other details from your city location.

Track the satellite on the map from your city or location and see movement details for azimuth, elevation, latitude, longitude, range, height, and movement on the map or in text.







IsCatalogInMostPopularTable: catalog: 49212, numindb: 10
Update: records affected: 1



GetName: 49212 ONEWEB-0346

Hit Count: updated at: Tue, 19 Oct 2021 08:47:00 GMT